Location: Malmö
(55.6090°N, 13.0007°E)
Time: 01:20:54
(UTC+01:00)

ISS - Pass Details

Date: 31 January 2021
Orbit: 417 x 422 km, 51.6° (Epoch: 06 March)

Event Time Altitude Azimuth Distance (km) Brightness Sun altitude
Rises 18:02:37 0° 268° (W) 2,375 2.0 -11.5°
Reaches altitude 10° 18:04:48 10° 260° (W) 1,510 0.6 -11.8°
Maximum altitude 18:07:58 37° 191° (S) 671 -2.5 -12.2°
Enters shadow 18:10:44 13° 125° (SE) 1,362 -1.6 -12.6°
